Airfield :
LOGIN :

Register | Disclaimer

   EN    FR    IT 

 










Legend :    VFR   Marginal VFR   IFR   Intensive IFR   Very Intensive IFR
Visi :
Ceiling :
>= 8 km
>= 3000ft
5 to 8 km
1000 to 3000 ft
1500m to 5 km
500 to 1000 ft
800 to 1500m
200 to 500 ft
< 800m
< 200 ft
Symbols :   Thunderstorms  Fog  Heavy snow  Heavy precipitations  Wind > 20 kt
SIGMETs :     Misc.  Thunderstorms  Icing  Turbulence  Mountain Waves  Volcanic Ashes







- Airport Elevation : 80 ft
- IATA code : LPL
- Download approach charts


EGGP - Liverpool John Lennon

CURRENT METAR :
  • 221150Z 07009KT 020V110 CAVOK 19/09 Q1020

EXPIRED METARs :
  • 221120Z 07009KT 040V110 CAVOK 18/08 Q1020
  • 221050Z 07010KT CAVOK 19/09 Q1020
  • 221020Z 06010KT 030V100 CAVOK 17/09 Q1020
  • 220950Z 07011KT 020V100 9999 FEW024 17/09 Q1020
  • 220920Z 07007KT 030V110 9999 FEW024 17/09 Q1020
  • 220850Z VRB05KT 9999 FEW024 17/10 Q1020

TAF TAF EGGP
Valid from the 22 at 12:00 until the 23 at 12:00 UTC


221057Z 2212/2312 06008KT 9999 FEW025
TEMPO 2219/2308 8000
PROB30
TEMPO 2302/2307 BKN014
ATIS : +44 151 907 2000 (option 5 or ext 5150)
Met : +44 871 750 5150
No reported NOTAMs for that airfield.



MET'MAP, your aeronautical weather chart ! - Copyright ORBIFLY December 2007 - Disclaimer

ORBIFLY MET'MAP TEAM :

Programming & Development : Alexandra Zaïnal
Concept & Development : Baudouin d'Aumeries
Co-Development & Prog : Marc-Olivier Méhu
Technical & hardware support : Manuel Goepfert

Contact : metmap@orbifly.com




SOURCES & CREDITS :

   NOAA